Year,Month,Day,Hour,Minute,Value (Times are PST for temperature in C)
2015,05,24,00,00,13.40
2015,05,24,00,01,13.40
2015,05,24,00,02,13.40
2015,05,24,00,03,13.40
2015,05,24,00,04,13.40
2015,05,24,00,05,13.40
2015,05,24,00,06,13.40
2015,05,24,00,07,13.30
2015,05,24,00,08,13.30
2015,05,24,00,09,13.30
2015,05,24,00,10,13.30
2015,05,24,00,11,13.30
2015,05,24,00,12,13.30
2015,05,24,00,13,13.30
2015,05,24,00,14,13.30
2015,05,24,00,15,13.20
2015,05,24,00,16,13.20
2015,05,24,00,17,13.20
2015,05,24,00,18,13.20
2015,05,24,00,19,13.20
2015,05,24,00,20,13.20
2015,05,24,00,21,13.20
2015,05,24,00,22,13.20
2015,05,24,00,23,13.10
2015,05,24,00,24,13.10
2015,05,24,00,25,13.10
2015,05,24,00,26,13.10
2015,05,24,00,27,13.10
2015,05,24,00,28,13.10
2015,05,24,00,29,13.10
2015,05,24,00,30,13.10
2015,05,24,00,31,13.20
2015,05,24,00,32,13.10
2015,05,24,00,33,13.20
2015,05,24,00,34,13.20
2015,05,24,00,35,13.20
2015,05,24,00,36,13.20
2015,05,24,00,37,13.20
2015,05,24,00,38,13.20
2015,05,24,00,39,13.20
2015,05,24,00,40,13.20
2015,05,24,00,41,13.20
2015,05,24,00,42,13.20
2015,05,24,00,43,13.20
2015,05,24,00,44,13.20
2015,05,24,00,45,13.20
2015,05,24,00,46,13.20
2015,05,24,00,47,13.20
2015,05,24,00,48,13.20
2015,05,24,00,49,13.20
2015,05,24,00,50,13.20
2015,05,24,00,51,13.20
2015,05,24,00,52,13.20
2015,05,24,00,53,13.20
2015,05,24,00,54,13.20
2015,05,24,00,55,13.20
2015,05,24,00,56,13.20
2015,05,24,00,57,13.20
2015,05,24,00,58,13.20
2015,05,24,00,59,13.20
2015,05,24,01,00,13.20
2015,05,24,01,01,13.20
2015,05,24,01,02,13.20
2015,05,24,01,03,13.30
2015,05,24,01,04,13.30
2015,05,24,01,05,13.30
2015,05,24,01,06,13.30
2015,05,24,01,07,13.30
2015,05,24,01,08,13.30
2015,05,24,01,09,13.30
2015,05,24,01,10,13.30
2015,05,24,01,11,13.30
2015,05,24,01,12,13.20
2015,05,24,01,13,13.20
2015,05,24,01,14,13.20
2015,05,24,01,15,13.20
2015,05,24,01,16,13.20
2015,05,24,01,17,13.20
2015,05,24,01,18,13.20
2015,05,24,01,19,13.10
2015,05,24,01,20,13.10
2015,05,24,01,21,13.10
2015,05,24,01,22,13.10
2015,05,24,01,23,13.10
2015,05,24,01,24,13.10
2015,05,24,01,25,13.10
2015,05,24,01,26,13.10
2015,05,24,01,27,13.10
2015,05,24,01,28,13.10
2015,05,24,01,29,13.10
2015,05,24,01,30,13.10
2015,05,24,01,31,13.10
2015,05,24,01,32,13.10
2015,05,24,01,33,13.10
2015,05,24,01,34,13.10
2015,05,24,01,35,13.10
2015,05,24,01,36,13.10
2015,05,24,01,37,13.20
2015,05,24,01,38,13.20
2015,05,24,01,39,13.20
2015,05,24,01,40,13.20
2015,05,24,01,41,13.20
2015,05,24,01,42,13.20
2015,05,24,01,43,13.20
2015,05,24,01,44,13.20
2015,05,24,01,45,13.20
2015,05,24,01,46,13.30
2015,05,24,01,47,13.30
2015,05,24,01,48,13.30
2015,05,24,01,49,13.30
2015,05,24,01,50,13.30
2015,05,24,01,51,13.30
2015,05,24,01,52,13.30
2015,05,24,01,53,13.30
2015,05,24,01,54,13.30
2015,05,24,01,55,13.30
2015,05,24,01,56,13.40
2015,05,24,01,57,13.40
2015,05,24,01,58,13.40
2015,05,24,01,59,13.40
2015,05,24,02,00,13.40
2015,05,24,02,01,13.50
2015,05,24,02,02,13.50
2015,05,24,02,03,13.50
2015,05,24,02,04,13.50
2015,05,24,02,05,13.60
2015,05,24,02,06,13.60
2015,05,24,02,07,13.60
2015,05,24,02,08,13.60
2015,05,24,02,09,13.60
2015,05,24,02,10,13.60
2015,05,24,02,11,13.60
2015,05,24,02,12,13.60
2015,05,24,02,13,13.60
2015,05,24,02,14,13.60
2015,05,24,02,15,13.60
2015,05,24,02,16,13.60
2015,05,24,02,17,13.60
2015,05,24,02,18,13.60
2015,05,24,02,19,13.70
2015,05,24,02,20,13.70
2015,05,24,02,21,13.70
2015,05,24,02,22,13.70
2015,05,24,02,23,13.70
2015,05,24,02,24,13.70
2015,05,24,02,25,13.70
2015,05,24,02,26,13.70
2015,05,24,02,27,13.70
2015,05,24,02,28,13.70
2015,05,24,02,29,13.70
2015,05,24,02,30,13.70
2015,05,24,02,31,13.70
2015,05,24,02,32,13.70
2015,05,24,02,33,13.70
2015,05,24,02,34,13.70
2015,05,24,02,35,13.70
2015,05,24,02,36,13.70
2015,05,24,02,37,13.70
2015,05,24,02,38,13.70
2015,05,24,02,39,13.70
2015,05,24,02,40,13.60
2015,05,24,02,41,13.60
2015,05,24,02,42,13.60
2015,05,24,02,43,13.50
2015,05,24,02,44,13.50
2015,05,24,02,45,13.40
2015,05,24,02,46,13.40
2015,05,24,02,47,13.40
2015,05,24,02,48,13.40
2015,05,24,02,49,13.40
2015,05,24,02,50,13.30
2015,05,24,02,51,13.30
2015,05,24,02,52,13.30
2015,05,24,02,53,13.30
2015,05,24,02,54,13.30
2015,05,24,02,55,13.30
2015,05,24,02,56,13.30
2015,05,24,02,57,13.30
2015,05,24,02,58,13.30
2015,05,24,02,59,13.40
2015,05,24,03,00,13.40
2015,05,24,03,01,13.40
2015,05,24,03,02,13.40
2015,05,24,03,03,13.50
2015,05,24,04,02,13.20
2015,05,24,04,03,13.20
2015,05,24,04,04,13.20
2015,05,24,04,05,13.20
2015,05,24,04,06,13.10
2015,05,24,04,07,13.10
2015,05,24,04,08,13.10
2015,05,24,04,09,13.10
2015,05,24,04,10,13.10
2015,05,24,04,11,13.10
2015,05,24,04,12,13.10
2015,05,24,04,13,13.10
2015,05,24,04,14,13.10
2015,05,24,04,15,13.10
2015,05,24,04,16,13.10
2015,05,24,04,17,13.10
2015,05,24,04,18,13.10
2015,05,24,04,19,13.10
2015,05,24,04,20,13.10
2015,05,24,04,21,13.00
2015,05,24,04,22,13.00
2015,05,24,04,23,13.00
2015,05,24,04,24,13.00
2015,05,24,04,25,13.00
2015,05,24,04,26,13.00
2015,05,24,04,27,13.00
2015,05,24,04,28,12.90
2015,05,24,04,29,12.90
2015,05,24,04,30,12.90
2015,05,24,04,31,12.90
2015,05,24,04,32,12.90
2015,05,24,04,33,12.90
2015,05,24,04,34,12.90
2015,05,24,04,35,12.90
2015,05,24,04,36,12.90
2015,05,24,04,37,12.90
2015,05,24,04,38,12.90
2015,05,24,04,39,12.90
2015,05,24,04,40,12.90
2015,05,24,04,41,12.90
2015,05,24,04,42,12.80
2015,05,24,04,43,12.80
2015,05,24,04,44,12.80
2015,05,24,04,45,12.80
2015,05,24,04,46,12.80
2015,05,24,04,47,12.80
2015,05,24,04,48,12.80
2015,05,24,04,49,12.80
2015,05,24,04,50,12.80
2015,05,24,04,51,12.80
2015,05,24,04,52,12.80
2015,05,24,04,53,12.80
2015,05,24,04,54,12.80
2015,05,24,04,55,12.80
2015,05,24,04,56,12.80
2015,05,24,04,57,12.80
2015,05,24,04,58,12.80
2015,05,24,04,59,12.80
2015,05,24,05,00,12.80
2015,05,24,05,01,12.80
2015,05,24,05,02,12.70
2015,05,24,05,03,12.70
2015,05,24,05,04,12.70
2015,05,24,05,05,12.70
2015,05,24,05,06,12.70
2015,05,24,05,07,12.70
2015,05,24,05,08,12.70
2015,05,24,05,09,12.70
2015,05,24,05,10,12.70
2015,05,24,05,11,12.70
2015,05,24,05,12,12.70
2015,05,24,05,13,12.70
2015,05,24,05,14,12.70
2015,05,24,05,15,12.70
2015,05,24,05,16,12.70
2015,05,24,05,17,12.70
2015,05,24,05,18,12.70
2015,05,24,05,19,12.70
2015,05,24,05,20,12.60
2015,05,24,05,21,12.70
2015,05,24,05,22,12.60
2015,05,24,05,23,12.60
2015,05,24,05,24,12.60
2015,05,24,05,25,12.60
2015,05,24,05,26,12.60
2015,05,24,05,27,12.60
2015,05,24,05,28,12.60
2015,05,24,05,29,12.60
2015,05,24,05,30,12.60
2015,05,24,05,31,12.60
2015,05,24,05,32,12.60
2015,05,24,05,33,12.60
2015,05,24,05,34,12.60
2015,05,24,05,35,12.60
2015,05,24,05,36,12.60
2015,05,24,05,37,12.50
2015,05,24,05,38,12.50
2015,05,24,05,39,12.50
2015,05,24,05,40,12.40
2015,05,24,05,41,12.40
2015,05,24,05,42,12.40
2015,05,24,05,43,12.40
2015,05,24,05,44,12.40
2015,05,24,05,45,12.40
2015,05,24,05,46,12.40
2015,05,24,05,47,12.40
2015,05,24,05,48,12.40
2015,05,24,05,49,12.40
2015,05,24,05,50,12.40
2015,05,24,05,51,12.40
2015,05,24,05,52,12.40
2015,05,24,05,53,12.40
2015,05,24,05,54,12.40
2015,05,24,05,55,12.40
2015,05,24,05,56,12.40
2015,05,24,05,57,12.40
2015,05,24,05,58,12.40
2015,05,24,05,59,12.30
2015,05,24,06,00,12.30
2015,05,24,06,01,12.30
2015,05,24,06,02,12.30
2015,05,24,06,03,12.30
2015,05,24,06,04,12.30
2015,05,24,06,05,12.30
2015,05,24,06,06,12.30
2015,05,24,06,07,12.30
2015,05,24,06,08,12.30
2015,05,24,06,09,12.30
2015,05,24,06,10,12.30
2015,05,24,06,11,12.30
2015,05,24,06,12,12.30
2015,05,24,06,13,12.30
2015,05,24,06,14,12.30
2015,05,24,06,15,12.30
2015,05,24,06,16,12.30
2015,05,24,06,17,12.30
2015,05,24,06,18,12.30
2015,05,24,06,19,12.30
2015,05,24,06,20,12.30
2015,05,24,06,21,12.30
2015,05,24,06,22,12.30
2015,05,24,06,23,12.30
2015,05,24,06,24,12.30
2015,05,24,06,25,12.30
2015,05,24,06,26,12.30
2015,05,24,06,27,12.30
2015,05,24,06,28,12.20
2015,05,24,06,29,12.20
2015,05,24,06,30,12.20
2015,05,24,06,31,12.20
2015,05,24,06,32,12.20
2015,05,24,06,33,12.20
2015,05,24,06,34,12.20
2015,05,24,06,35,12.20
2015,05,24,06,36,12.20
2015,05,24,06,37,12.20
2015,05,24,06,38,12.20
2015,05,24,06,39,12.20
2015,05,24,06,40,12.20
2015,05,24,06,41,12.10
2015,05,24,06,42,12.10
2015,05,24,06,43,12.10
2015,05,24,06,44,12.10
2015,05,24,06,45,12.10
2015,05,24,06,46,12.10
2015,05,24,06,47,12.10
2015,05,24,06,48,12.10
2015,05,24,06,49,12.10
2015,05,24,06,50,12.10
2015,05,24,06,51,12.10
2015,05,24,06,52,12.10
2015,05,24,06,53,12.10
2015,05,24,06,54,12.10
2015,05,24,06,55,12.10
2015,05,24,06,56,12.10
2015,05,24,06,57,12.10
2015,05,24,06,58,12.10
2015,05,24,06,59,12.10
2015,05,24,07,00,12.10
2015,05,24,07,01,12.10
2015,05,24,07,02,12.10
2015,05,24,07,03,12.10
2015,05,24,07,04,12.10
2015,05,24,07,05,12.10
2015,05,24,07,06,12.10
2015,05,24,07,07,12.10
2015,05,24,07,08,12.20
2015,05,24,07,09,12.20
2015,05,24,07,10,12.20
2015,05,24,07,11,12.20
2015,05,24,07,12,12.20
2015,05,24,07,13,12.20
2015,05,24,07,14,12.20
2015,05,24,07,15,12.20
2015,05,24,07,16,12.20
2015,05,24,07,17,12.20
2015,05,24,07,18,12.20
2015,05,24,07,19,12.20
2015,05,24,07,20,12.20
2015,05,24,07,21,12.20
2015,05,24,07,22,12.20
2015,05,24,07,23,12.20
2015,05,24,07,24,12.20
2015,05,24,07,25,12.30
2015,05,24,07,26,12.30
2015,05,24,07,27,12.30
2015,05,24,07,28,12.30
2015,05,24,07,29,12.30
2015,05,24,07,30,12.30
2015,05,24,07,31,12.30
2015,05,24,07,32,12.30
2015,05,24,07,33,12.30
2015,05,24,07,34,12.30
2015,05,24,07,35,12.40
2015,05,24,07,36,12.40
2015,05,24,07,37,12.40
2015,05,24,07,38,12.40
2015,05,24,07,39,12.40
2015,05,24,07,40,12.40
2015,05,24,07,41,12.40
2015,05,24,07,42,12.40
2015,05,24,07,43,12.50
2015,05,24,07,44,12.50
2015,05,24,07,45,12.50
2015,05,24,07,46,12.50
2015,05,24,07,47,12.50
2015,05,24,07,48,12.60
2015,05,24,07,49,12.60
2015,05,24,07,50,12.60
2015,05,24,07,51,12.60
2015,05,24,07,52,12.60
2015,05,24,07,53,12.60
2015,05,24,07,54,12.60
2015,05,24,07,55,12.60
2015,05,24,07,56,12.60
2015,05,24,07,57,12.70
2015,05,24,07,58,12.70
2015,05,24,07,59,12.80
2015,05,24,08,00,12.80
2015,05,24,08,01,12.90
2015,05,24,08,02,12.90
2015,05,24,08,03,13.00
2015,05,24,08,04,13.00
2015,05,24,08,05,13.00
2015,05,24,08,06,13.00
2015,05,24,08,07,13.00
2015,05,24,08,08,13.00
2015,05,24,08,09,13.00
2015,05,24,08,10,13.00
2015,05,24,08,11,13.00
2015,05,24,08,12,13.00
2015,05,24,08,13,13.10
2015,05,24,08,14,13.10
2015,05,24,08,15,13.10
2015,05,24,08,16,13.10
2015,05,24,08,17,13.10
2015,05,24,08,18,13.00
2015,05,24,08,19,13.10
2015,05,24,08,20,13.10
2015,05,24,08,21,13.10
2015,05,24,08,22,13.10
2015,05,24,08,23,13.10
2015,05,24,08,24,13.10
2015,05,24,08,25,13.20
2015,05,24,08,26,13.20
2015,05,24,08,27,13.20
2015,05,24,08,28,13.20
2015,05,24,08,29,13.20
2015,05,24,08,30,13.20
2015,05,24,08,31,13.20
2015,05,24,08,32,13.20
2015,05,24,08,33,13.20
2015,05,24,08,34,13.30
2015,05,24,08,35,13.30
2015,05,24,08,36,13.30
2015,05,24,08,37,13.30
2015,05,24,08,38,13.30
2015,05,24,08,39,13.30
2015,05,24,08,40,13.30
2015,05,24,08,41,13.30
2015,05,24,08,42,13.30
2015,05,24,08,43,13.30
2015,05,24,08,44,13.40
2015,05,24,08,45,13.40
2015,05,24,08,46,13.40
2015,05,24,08,47,13.40
2015,05,24,08,48,13.40
2015,05,24,08,49,13.50
2015,05,24,08,50,13.50
2015,05,24,08,51,13.40
2015,05,24,08,52,13.40
2015,05,24,08,53,13.40
2015,05,24,08,54,13.40
2015,05,24,08,55,13.40
2015,05,24,08,56,13.40
2015,05,24,08,57,13.50
2015,05,24,08,58,13.50
2015,05,24,08,59,13.50
2015,05,24,09,00,13.50
2015,05,24,09,01,13.60
2015,05,24,09,02,13.60
2015,05,24,09,03,13.50
2015,05,24,09,04,13.60
2015,05,24,09,05,13.60
2015,05,24,09,06,13.60
2015,05,24,09,07,13.60
2015,05,24,09,08,13.60
2015,05,24,09,09,13.60
2015,05,24,09,10,13.70
2015,05,24,09,11,13.70
2015,05,24,09,12,13.70
2015,05,24,09,13,13.70
2015,05,24,09,14,13.80
2015,05,24,09,15,13.80
2015,05,24,09,16,13.90
2015,05,24,09,17,13.90
2015,05,24,09,18,13.90
2015,05,24,09,19,13.90
2015,05,24,09,20,13.90
2015,05,24,09,21,13.90
2015,05,24,09,22,13.90
2015,05,24,09,23,13.80
2015,05,24,09,24,13.80
2015,05,24,09,25,13.80
2015,05,24,09,26,13.80
2015,05,24,09,27,13.80
2015,05,24,09,28,13.90
2015,05,24,09,29,13.90
2015,05,24,09,30,13.90
2015,05,24,09,31,13.90
2015,05,24,09,32,13.90
2015,05,24,09,33,13.90
2015,05,24,09,34,14.00
2015,05,24,09,35,14.00
2015,05,24,09,36,14.10
2015,05,24,09,37,14.10
2015,05,24,09,38,14.10
2015,05,24,09,39,14.10
2015,05,24,09,40,14.00
2015,05,24,09,41,14.00
2015,05,24,09,42,14.00
2015,05,24,09,43,14.00
2015,05,24,09,44,14.10
2015,05,24,09,45,14.10
2015,05,24,09,46,14.10
2015,05,24,09,47,14.20
2015,05,24,09,48,14.20
2015,05,24,09,49,14.20
2015,05,24,09,50,14.20
2015,05,24,09,51,14.20
2015,05,24,09,52,14.30
2015,05,24,09,53,14.30
2015,05,24,09,54,14.30
2015,05,24,09,55,14.40
2015,05,24,09,56,14.40
2015,05,24,09,57,14.40
2015,05,24,09,58,14.50
2015,05,24,09,59,14.50
2015,05,24,10,00,14.50
2015,05,24,10,01,14.60
2015,05,24,10,02,14.60
2015,05,24,10,03,14.60
2015,05,24,10,04,14.70
2015,05,24,10,05,14.60
2015,05,24,10,06,14.60
2015,05,24,10,07,14.50
2015,05,24,10,08,14.40
2015,05,24,10,09,14.40
2015,05,24,10,10,14.30
2015,05,24,10,11,14.30
2015,05,24,10,12,14.30
2015,05,24,10,13,14.40
2015,05,24,10,14,14.40
2015,05,24,10,15,14.30
2015,05,24,10,16,14.30
2015,05,24,10,17,14.30
2015,05,24,10,18,14.30
2015,05,24,10,19,14.30
2015,05,24,10,20,14.30
2015,05,24,10,21,14.30
2015,05,24,10,22,14.30
2015,05,24,10,23,14.40
2015,05,24,10,24,14.40
2015,05,24,10,25,14.50
2015,05,24,10,26,14.50
2015,05,24,10,27,14.50
2015,05,24,10,28,14.50
2015,05,24,10,29,14.50
2015,05,24,10,30,14.60
2015,05,24,10,31,14.50
2015,05,24,10,32,14.50
2015,05,24,10,33,14.40
2015,05,24,10,34,14.30
2015,05,24,10,35,14.30
2015,05,24,10,36,14.30
2015,05,24,10,37,14.30
2015,05,24,10,38,14.30
2015,05,24,10,39,14.30
2015,05,24,10,40,14.30
2015,05,24,10,41,14.30
2015,05,24,10,42,14.30
2015,05,24,10,43,14.30
2015,05,24,10,44,14.30
2015,05,24,10,45,14.30
2015,05,24,10,46,14.40
2015,05,24,10,47,14.40
2015,05,24,10,48,14.40
2015,05,24,10,49,14.50
2015,05,24,10,50,14.50
2015,05,24,10,51,14.60
2015,05,24,10,52,14.60
2015,05,24,10,53,14.60
2015,05,24,10,54,14.70
2015,05,24,10,55,14.80
2015,05,24,10,56,14.90
2015,05,24,10,57,14.90
2015,05,24,10,58,15.00
2015,05,24,10,59,14.90
2015,05,24,11,00,15.00
2015,05,24,11,01,15.00
2015,05,24,11,02,15.00
2015,05,24,11,03,15.00
2015,05,24,11,04,15.00
2015,05,24,11,05,15.10
2015,05,24,11,06,15.10
2015,05,24,11,07,15.10
2015,05,24,11,08,15.10
2015,05,24,11,09,15.20
2015,05,24,11,10,15.20
2015,05,24,11,11,15.20
2015,05,24,11,12,15.20
2015,05,24,11,13,15.30
2015,05,24,11,14,15.30
2015,05,24,11,15,15.30
2015,05,24,11,16,15.40
2015,05,24,11,17,15.50
2015,05,24,11,18,15.60
2015,05,24,11,19,15.70
2015,05,24,11,20,15.70
2015,05,24,11,21,15.80
2015,05,24,11,22,15.80
2015,05,24,11,23,15.80
2015,05,24,11,24,15.90
2015,05,24,11,25,15.90
2015,05,24,11,26,16.00
2015,05,24,11,27,16.10
2015,05,24,11,28,16.10
2015,05,24,11,29,16.20
2015,05,24,11,30,16.30
2015,05,24,11,31,16.30
2015,05,24,11,32,16.30
2015,05,24,11,33,16.40
2015,05,24,11,34,16.50
2015,05,24,11,35,16.60
2015,05,24,11,36,16.60
2015,05,24,11,37,16.70
2015,05,24,11,38,16.60
2015,05,24,11,39,16.60
2015,05,24,11,40,16.50
2015,05,24,11,41,16.50
2015,05,24,11,42,16.40
2015,05,24,11,43,16.40
2015,05,24,11,44,16.50
2015,05,24,11,45,16.50
2015,05,24,11,46,16.60
2015,05,24,11,47,16.70
2015,05,24,11,48,16.80
2015,05,24,11,49,16.80
2015,05,24,11,50,16.80
2015,05,24,11,51,16.80
2015,05,24,11,52,16.80
2015,05,24,11,53,16.80
2015,05,24,11,54,16.80
2015,05,24,11,55,16.80
2015,05,24,11,56,16.70
2015,05,24,11,57,16.50
2015,05,24,11,58,16.40
2015,05,24,11,59,16.30
2015,05,24,12,00,16.20
2015,05,24,12,01,16.10
2015,05,24,12,02,16.00
2015,05,24,12,03,15.90
2015,05,24,12,04,15.90
2015,05,24,12,05,15.90
2015,05,24,12,06,15.90
2015,05,24,12,07,15.90
2015,05,24,12,08,15.90
2015,05,24,12,09,15.90
2015,05,24,12,10,15.90
2015,05,24,12,11,16.00
2015,05,24,12,12,16.00
2015,05,24,12,13,15.90
2015,05,24,12,14,15.90
2015,05,24,12,15,16.00
2015,05,24,12,16,16.00
2015,05,24,12,17,16.10
2015,05,24,12,18,16.20
2015,05,24,12,19,16.40
2015,05,24,12,20,16.50
2015,05,24,12,21,16.60
2015,05,24,12,22,16.60
2015,05,24,12,23,16.70
2015,05,24,12,24,16.70
2015,05,24,12,25,16.80
2015,05,24,12,26,16.80
2015,05,24,12,27,16.90
2015,05,24,12,28,16.90
2015,05,24,12,29,16.90
2015,05,24,12,30,16.90
2015,05,24,12,31,17.00
2015,05,24,12,32,17.00
2015,05,24,12,33,17.00
2015,05,24,12,34,17.10
2015,05,24,12,35,17.10
2015,05,24,12,36,17.20
2015,05,24,12,37,17.20
2015,05,24,12,38,17.10
2015,05,24,12,39,17.10
2015,05,24,12,40,17.10
2015,05,24,12,41,17.10
2015,05,24,12,42,17.10
2015,05,24,12,43,17.10
2015,05,24,12,44,17.10
2015,05,24,12,45,17.20
2015,05,24,12,46,17.20
2015,05,24,12,47,17.20
2015,05,24,12,48,17.20
2015,05,24,12,49,17.10
2015,05,24,12,50,17.10
2015,05,24,12,51,17.00
2015,05,24,12,52,17.00
2015,05,24,12,53,16.90
2015,05,24,12,54,16.90
2015,05,24,12,55,16.90
2015,05,24,12,56,16.90
2015,05,24,12,57,17.00
2015,05,24,12,58,17.10
2015,05,24,12,59,17.10
2015,05,24,13,00,17.20
2015,05,24,13,01,17.20
2015,05,24,13,02,17.20
2015,05,24,13,03,17.20
2015,05,24,13,04,17.20
2015,05,24,13,05,17.20
2015,05,24,13,06,17.30
2015,05,24,13,07,17.30
2015,05,24,13,08,17.40
2015,05,24,13,09,17.40
2015,05,24,13,10,17.50
2015,05,24,13,11,17.50
2015,05,24,13,12,17.60
2015,05,24,13,13,17.70
2015,05,24,13,14,17.70
2015,05,24,13,15,17.60
2015,05,24,13,16,17.60
2015,05,24,13,17,17.50
2015,05,24,13,18,17.50
2015,05,24,13,19,17.40
2015,05,24,13,20,17.40
2015,05,24,13,21,17.40
2015,05,24,13,22,17.40
2015,05,24,13,23,17.40
2015,05,24,13,24,17.40
2015,05,24,13,25,17.40
2015,05,24,13,26,17.40
2015,05,24,13,27,17.50
2015,05,24,13,28,17.50
2015,05,24,13,29,17.50
2015,05,24,13,30,17.50
2015,05,24,13,31,17.40
2015,05,24,13,32,17.30
2015,05,24,13,33,17.30
2015,05,24,13,34,17.20
2015,05,24,13,35,17.20
2015,05,24,13,36,17.10
2015,05,24,13,37,17.10
2015,05,24,13,38,17.10
2015,05,24,13,39,17.10
2015,05,24,13,40,17.00
2015,05,24,13,41,17.00
2015,05,24,13,42,17.00
2015,05,24,13,43,16.90
2015,05,24,13,44,16.90
2015,05,24,13,45,16.90
2015,05,24,13,46,17.00
2015,05,24,13,47,17.00
2015,05,24,13,48,17.10
2015,05,24,13,49,17.20
2015,05,24,13,50,17.20
2015,05,24,13,51,17.30
2015,05,24,13,52,17.30
2015,05,24,13,53,17.30
2015,05,24,13,54,17.30
2015,05,24,13,55,17.30
2015,05,24,13,56,17.30
2015,05,24,13,57,17.30
2015,05,24,13,58,17.20
2015,05,24,13,59,17.10
2015,05,24,14,00,17.10
2015,05,24,14,01,17.00
2015,05,24,14,02,17.00
2015,05,24,14,03,16.90
2015,05,24,14,04,16.90
2015,05,24,14,05,16.80
2015,05,24,14,06,16.80
2015,05,24,14,07,16.90
2015,05,24,14,08,16.90
2015,05,24,14,09,16.90
2015,05,24,14,10,16.90
2015,05,24,14,11,16.90
2015,05,24,14,12,16.90
2015,05,24,14,13,16.90
2015,05,24,14,14,16.90
2015,05,24,14,15,16.90
2015,05,24,14,16,16.90
2015,05,24,14,17,16.90
2015,05,24,14,18,16.90
2015,05,24,14,19,17.00
2015,05,24,14,20,17.10
2015,05,24,14,21,17.20
2015,05,24,14,22,17.30
2015,05,24,14,23,17.30
2015,05,24,14,24,17.40
2015,05,24,14,25,17.50
2015,05,24,14,26,17.60
2015,05,24,14,27,17.60
2015,05,24,14,28,17.50
2015,05,24,14,29,17.50
2015,05,24,14,30,17.50
2015,05,24,14,31,17.40
2015,05,24,14,32,17.40
2015,05,24,14,33,17.40
2015,05,24,14,34,17.40
2015,05,24,14,35,17.40
2015,05,24,14,36,17.30
2015,05,24,14,37,17.30
2015,05,24,14,38,17.30
2015,05,24,14,39,17.30
2015,05,24,14,40,17.30
2015,05,24,14,41,17.40
2015,05,24,14,42,17.50
2015,05,24,14,43,17.50
2015,05,24,14,44,17.60
2015,05,24,14,45,17.60
2015,05,24,14,46,17.60
2015,05,24,14,47,17.70
2015,05,24,14,48,17.60
2015,05,24,14,49,17.60
2015,05,24,14,50,17.50
2015,05,24,14,51,17.50
2015,05,24,14,52,17.40
2015,05,24,14,53,17.50
2015,05,24,14,54,17.50
2015,05,24,14,55,17.50
2015,05,24,14,56,17.40
2015,05,24,14,57,17.40
2015,05,24,14,58,17.40
2015,05,24,14,59,17.30
2015,05,24,15,00,17.30
2015,05,24,15,01,17.30
2015,05,24,15,02,17.30
2015,05,24,15,03,17.30
2015,05,24,15,04,17.30
2015,05,24,15,05,17.30
2015,05,24,15,06,17.40
2015,05,24,15,07,17.50
2015,05,24,15,08,17.50
2015,05,24,15,09,17.60
2015,05,24,15,10,17.70
2015,05,24,15,11,17.70
2015,05,24,15,12,17.80
2015,05,24,15,13,17.80
2015,05,24,15,14,17.90
2015,05,24,15,15,18.00
2015,05,24,15,16,18.10
2015,05,24,15,17,18.20
2015,05,24,15,18,18.30
2015,05,24,15,19,18.40
2015,05,24,15,20,18.40
2015,05,24,15,21,18.40
2015,05,24,15,22,18.40
2015,05,24,15,23,18.40
2015,05,24,15,24,18.40
2015,05,24,15,25,18.40
2015,05,24,15,26,18.40
2015,05,24,15,27,18.50
2015,05,24,15,28,18.50
2015,05,24,15,29,18.50
2015,05,24,15,30,18.50
2015,05,24,15,31,18.50
2015,05,24,15,32,18.50
2015,05,24,15,33,18.40
2015,05,24,15,34,18.40
2015,05,24,15,35,18.30
2015,05,24,15,36,18.30
2015,05,24,15,37,18.30
2015,05,24,15,38,18.30
2015,05,24,15,39,18.20
2015,05,24,15,40,18.20
2015,05,24,15,41,18.10
2015,05,24,15,42,18.00
2015,05,24,15,43,17.90
2015,05,24,15,44,17.80
2015,05,24,15,45,17.70
2015,05,24,15,46,17.70
2015,05,24,15,47,17.80
2015,05,24,15,48,17.80
2015,05,24,15,49,17.80
2015,05,24,15,50,17.90
2015,05,24,15,51,17.90
2015,05,24,15,52,18.00
2015,05,24,15,53,18.00
2015,05,24,15,54,18.10
2015,05,24,15,55,18.10
2015,05,24,15,56,18.10
2015,05,24,15,57,18.20
2015,05,24,15,58,18.20
2015,05,24,15,59,18.20
2015,05,24,16,00,18.20
2015,05,24,16,01,18.20
2015,05,24,16,02,18.10
2015,05,24,16,03,18.10
2015,05,24,16,04,18.10
2015,05,24,16,05,18.00
2015,05,24,16,06,18.00
2015,05,24,16,07,18.00
2015,05,24,16,08,17.90
2015,05,24,16,09,17.90
2015,05,24,16,10,18.00
2015,05,24,16,11,18.00
2015,05,24,16,12,18.10
2015,05,24,16,13,18.10
2015,05,24,16,14,18.20
2015,05,24,16,15,18.30
2015,05,24,16,16,18.40
2015,05,24,16,17,18.40
2015,05,24,16,18,18.60
2015,05,24,16,19,18.60
2015,05,24,16,20,18.70
2015,05,24,16,21,18.80
2015,05,24,16,22,18.80
2015,05,24,16,23,18.80
2015,05,24,16,24,18.90
2015,05,24,16,25,18.90
2015,05,24,16,26,18.90
2015,05,24,16,27,18.90
2015,05,24,16,28,18.90
2015,05,24,16,29,19.00
2015,05,24,16,30,19.00
2015,05,24,16,31,19.00
2015,05,24,16,32,19.10
2015,05,24,16,33,19.10
2015,05,24,16,34,19.10
2015,05,24,16,35,19.10
2015,05,24,16,36,19.10
2015,05,24,16,37,19.10
2015,05,24,16,38,19.20
2015,05,24,16,39,19.20
2015,05,24,16,40,19.20
2015,05,24,16,41,19.20
2015,05,24,16,42,19.20
2015,05,24,16,43,19.20
2015,05,24,16,44,19.20
2015,05,24,16,45,19.20
2015,05,24,16,46,19.20
2015,05,24,16,47,19.20
2015,05,24,16,48,19.20
2015,05,24,16,49,19.20
2015,05,24,16,50,19.10
2015,05,24,16,51,19.10
2015,05,24,16,52,19.10
2015,05,24,16,53,19.00
2015,05,24,16,54,18.90
2015,05,24,16,55,18.90
2015,05,24,16,56,18.90
2015,05,24,16,57,18.90
2015,05,24,16,58,19.00
2015,05,24,16,59,19.00
2015,05,24,17,00,19.10
2015,05,24,17,01,19.10
2015,05,24,17,02,19.10
2015,05,24,17,03,19.10
2015,05,24,17,04,19.00
2015,05,24,17,05,19.00
2015,05,24,17,06,18.90
2015,05,24,17,07,18.90
2015,05,24,17,08,18.90
2015,05,24,17,09,18.90
2015,05,24,17,10,18.80
2015,05,24,17,11,18.80
2015,05,24,17,12,18.80
2015,05,24,17,13,18.80
2015,05,24,17,14,18.80
2015,05,24,17,15,18.80
2015,05,24,17,16,18.80
2015,05,24,17,17,18.80
2015,05,24,17,18,18.80
2015,05,24,17,19,18.80
2015,05,24,17,20,18.80
2015,05,24,17,21,18.80
2015,05,24,17,22,18.70
2015,05,24,17,23,18.70
2015,05,24,17,24,18.70
2015,05,24,17,25,18.70
2015,05,24,17,26,18.70
2015,05,24,17,27,18.70
2015,05,24,17,28,18.80
2015,05,24,17,29,18.80
2015,05,24,17,30,18.80
2015,05,24,17,31,18.80
2015,05,24,17,32,18.80
2015,05,24,17,33,18.80
2015,05,24,17,34,18.80
2015,05,24,17,35,18.90
2015,05,24,17,36,19.00
2015,05,24,17,37,19.00
2015,05,24,17,38,19.10
2015,05,24,17,39,19.20
2015,05,24,17,40,19.30
2015,05,24,17,41,19.30
2015,05,24,17,42,19.40
2015,05,24,17,43,19.50
2015,05,24,17,44,19.60
2015,05,24,17,45,19.70
2015,05,24,17,46,19.70
2015,05,24,17,47,19.80
2015,05,24,17,48,19.80
2015,05,24,17,49,19.80
2015,05,24,17,50,19.80
2015,05,24,17,51,19.80
2015,05,24,17,52,19.80
2015,05,24,17,53,19.80
2015,05,24,17,54,19.90
2015,05,24,17,55,19.90
2015,05,24,17,56,19.90
2015,05,24,17,57,19.80
2015,05,24,17,58,19.80
2015,05,24,17,59,19.80
2015,05,24,18,00,19.80
2015,05,24,18,01,19.80
2015,05,24,18,02,19.80
2015,05,24,18,03,19.80
2015,05,24,18,04,19.80
2015,05,24,18,05,19.90
2015,05,24,18,06,19.90
2015,05,24,18,07,19.90
2015,05,24,18,08,19.90
2015,05,24,18,09,20.00
2015,05,24,18,10,20.00
2015,05,24,18,11,20.10
2015,05,24,18,12,20.10
2015,05,24,18,13,20.20
2015,05,24,18,14,20.30
2015,05,24,18,15,20.40
2015,05,24,18,16,20.50
2015,05,24,18,17,20.60